TimeEST,TemperatureF,Dew PointF,Humidity,Sea Level PressureIn,VisibilityMPH,Wind Direction,Wind SpeedMPH,Gust SpeedMPH,PrecipitationIn,Events,Conditions,WindDirDegrees,DateUTC
12:15 AM,8.6,-14.8,34,29.92,10.0,WSW,10.4,-,N/A,,Clear,240,2013-01-04 05:15:00
12:35 AM,6.8,6.8,100,29.91,10.0,WSW,10.4,-,N/A,,Clear,240,2013-01-04 05:35:00
12:55 AM,6.8,-5.8,56,29.91,10.0,SW,8.1,-,N/A,,Clear,230,2013-01-04 05:55:00
1:15 AM,8.6,-9.4,44,29.90,10.0,SSW,5.8,-,N/A,,Clear,210,2013-01-04 06:15:00
1:35 AM,6.8,-9999,N/A,29.90,10.0,SW,5.8,-,N/A,,Clear,220,2013-01-04 06:35:00
1:55 AM,6.8,-11.2,44,29.90,10.0,SW,6.9,-,N/A,,Clear,230,2013-01-04 06:55:00
2:35 AM,3.2,-9999,N/A,29.89,10.0,SW,4.6,-,N/A,,Clear,220,2013-01-04 07:35:00
2:55 AM,3.2,-14.8,43,29.89,10.0,SSW,6.9,-,N/A,,Clear,200,2013-01-04 07:55:00
3:15 AM,6.8,-7.6,52,29.88,10.0,SSW,5.8,-,N/A,,Clear,200,2013-01-04 08:15:00
3:35 AM,5.0,-9999,N/A,29.88,10.0,SSW,5.8,-,N/A,,Clear,210,2013-01-04 08:35:00
3:55 AM,5.0,-14.8,40,29.88,10.0,SSW,4.6,-,N/A,,Clear,210,2013-01-04 08:55:00
4:15 AM,3.2,1.4,92,29.87,10.0,WSW,6.9,-,N/A,,Clear,240,2013-01-04 09:15:00
4:35 AM,6.8,-0.4,72,29.87,10.0,SSW,3.5,-,N/A,,Clear,200,2013-01-04 09:35:00
4:55 AM,8.6,-9.4,44,29.87,10.0,WSW,4.6,-,N/A,,Clear,240,2013-01-04 09:55:00
5:15 AM,8.6,-5.8,52,29.87,10.0,SSW,3.5,-,N/A,,Clear,200,2013-01-04 10:15:00
5:35 AM,10.4,-9999,N/A,29.86,10.0,Calm,Calm,-,N/A,,Clear,0,2013-01-04 10:35:00
5:55 AM,5.0,5.0,100,29.86,10.0,Calm,Calm,-,N/A,,Clear,0,2013-01-04 10:55:00
6:15 AM,3.2,-13.0,47,29.87,10.0,SSW,5.8,-,N/A,,Clear,200,2013-01-04 11:15:00
6:35 AM,8.6,-5.8,52,29.88,10.0,WSW,6.9,-,N/A,,Partly Cloudy,250,2013-01-04 11:35:00
7:15 AM,10.4,-7.6,44,29.88,10.0,WSW,4.6,-,N/A,,Mostly Cloudy,250,2013-01-04 12:15:00
7:35 AM,15.8,-5.8,38,29.88,10.0,West,8.1,-,N/A,,Overcast,260,2013-01-04 12:35:00
8:15 AM,21.2,5.0,50,29.87,10.0,West,8.1,-,N/A,,Scattered Clouds,270,2013-01-04 13:15:00
8:35 AM,21.2,1.4,42,29.87,10.0,WSW,10.4,-,N/A,,Clear,240,2013-01-04 13:35:00
8:55 AM,21.2,5.0,50,29.87,10.0,SW,9.2,-,N/A,,Clear,230,2013-01-04 13:55:00
9:15 AM,21.2,5.0,50,29.86,10.0,SW,9.2,-,N/A,,Mostly Cloudy,230,2013-01-04 14:15:00
9:35 AM,23.0,10.4,59,29.86,10.0,SW,10.4,-,N/A,,Overcast,230,2013-01-04 14:35:00
9:55 AM,23.0,19.4,86,29.87,10.0,SW,8.1,-,N/A,,Overcast,220,2013-01-04 14:55:00
10:15 AM,24.8,24.8,100,29.86,10.0,SSW,8.1,-,N/A,,Overcast,200,2013-01-04 15:15:00
10:35 AM,24.8,-9999,N/A,29.84,10.0,SSW,5.8,-,N/A,,Overcast,200,2013-01-04 15:35:00
10:55 AM,26.6,21.2,80,29.83,10.0,SSW,6.9,-,N/A,,Scattered Clouds,210,2013-01-04 15:55:00
11:15 AM,28.4,14.0,55,29.81,10.0,SSW,9.2,16.1,N/A,,Clear,210,2013-01-04 16:15:00
11:55 AM,32.0,32.0,100,29.78,10.0,SW,12.7,19.6,N/A,,Mostly Cloudy,230,2013-01-04 16:55:00
12:15 PM,33.8,21.2,60,29.76,10.0,SW,15.0,25.3,N/A,,Partly Cloudy,230,2013-01-04 17:15:00
12:35 PM,32.0,24.8,75,29.75,10.0,SW,15.0,25.3,N/A,,Clear,220,2013-01-04 17:35:00
12:55 PM,32.0,28.4,87,29.75,10.0,SW,13.8,23.0,N/A,,Clear,230,2013-01-04 17:55:00
1:15 PM,32.0,28.4,87,29.74,10.0,SW,12.7,19.6,N/A,,Clear,230,2013-01-04 18:15:00
1:35 PM,32.0,15.8,51,29.74,10.0,SW,8.1,-,N/A,,Clear,220,2013-01-04 18:35:00
1:55 PM,32.0,30.2,93,29.74,10.0,SW,9.2,-,N/A,,Clear,230,2013-01-04 18:55:00
2:15 PM,33.8,24.8,70,29.75,10.0,SW,8.1,-,N/A,,Clear,230,2013-01-04 19:15:00
2:35 PM,33.8,15.8,48,29.75,10.0,WSW,11.5,-,N/A,,Clear,240,2013-01-04 19:35:00
2:55 PM,33.8,33.8,100,29.75,10.0,WSW,11.5,-,N/A,,Partly Cloudy,240,2013-01-04 19:55:00
3:15 PM,33.8,23.0,65,29.75,10.0,SSW,9.2,-,N/A,,Mostly Cloudy,210,2013-01-04 20:15:00
3:35 PM,33.8,15.8,48,29.75,10.0,WSW,9.2,-,N/A,,Overcast,240,2013-01-04 20:35:00
3:55 PM,32.0,32.0,100,29.75,10.0,WSW,9.2,-,N/A,,Scattered Clouds,250,2013-01-04 20:55:00
4:15 PM,33.8,24.8,70,29.75,10.0,WSW,8.1,-,N/A,,Partly Cloudy,240,2013-01-04 21:15:00
4:35 PM,33.8,15.8,48,29.75,10.0,WSW,9.2,-,N/A,,Mostly Cloudy,240,2013-01-04 21:35:00
4:55 PM,33.8,33.8,100,29.75,10.0,WSW,9.2,-,N/A,,Overcast,250,2013-01-04 21:55:00
5:15 PM,32.0,28.4,87,29.75,10.0,WSW,12.7,-,N/A,,Scattered Clouds,250,2013-01-04 22:15:00
5:35 PM,30.2,12.2,47,29.75,10.0,WSW,11.5,-,N/A,,Clear,250,2013-01-04 22:35:00
5:55 PM,30.2,15.8,55,29.74,10.0,WSW,10.4,-,N/A,,Clear,240,2013-01-04 22:55:00
6:15 PM,30.2,-9999,N/A,29.75,10.0,WSW,11.5,-,N/A,,Clear,240,2013-01-04 23:15:00
6:35 PM,30.2,21.2,69,29.75,10.0,WSW,10.4,-,N/A,,Mostly Cloudy,240,2013-01-04 23:35:00
6:55 PM,30.2,12.2,47,29.75,10.0,WSW,12.7,-,N/A,,Overcast,240,2013-01-04 23:55:00
7:15 PM,32.0,32.0,100,29.75,10.0,WSW,11.5,-,N/A,,Overcast,240,2013-01-05 00:15:00
7:35 PM,33.8,24.8,70,29.75,10.0,WSW,10.4,-,N/A,,Overcast,240,2013-01-05 00:35:00
7:55 PM,32.0,15.8,51,29.75,10.0,WSW,9.2,-,N/A,,Overcast,240,2013-01-05 00:55:00
8:15 PM,32.0,32.0,100,29.75,10.0,SW,10.4,-,N/A,,Overcast,230,2013-01-05 01:15:00
8:35 PM,32.0,21.2,64,29.75,10.0,SW,8.1,-,N/A,,Overcast,220,2013-01-05 01:35:00
8:55 PM,32.0,15.8,51,29.75,10.0,SW,6.9,-,N/A,,Overcast,220,2013-01-05 01:55:00
9:15 PM,33.8,33.8,100,29.76,10.0,SSW,6.9,-,N/A,,Overcast,210,2013-01-05 02:15:00
9:35 PM,32.0,19.4,60,29.76,10.0,SW,6.9,-,N/A,,Overcast,230,2013-01-05 02:35:00
9:55 PM,32.0,17.6,55,29.76,10.0,SW,5.8,-,N/A,,Overcast,220,2013-01-05 02:55:00
10:15 PM,32.0,32.0,100,29.76,10.0,SW,9.2,-,N/A,,Overcast,230,2013-01-05 03:15:00
10:35 PM,32.0,23.0,69,29.75,10.0,SW,10.4,-,N/A,,Overcast,230,2013-01-05 03:35:00
10:55 PM,32.0,15.8,51,29.75,10.0,SW,9.2,-,N/A,,Mostly Cloudy,220,2013-01-05 03:55:00
11:15 PM,32.0,32.0,100,29.75,10.0,SW,6.9,-,N/A,,Overcast,220,2013-01-05 04:15:00
11:35 PM,30.2,26.6,86,29.75,10.0,SW,9.2,-,N/A,,Scattered Clouds,220,2013-01-05 04:35:00
11:55 PM,32.0,12.2,44,29.75,10.0,SW,6.9,-,N/A,,Scattered Clouds,220,2013-01-05 04:55:00